EW8409 Weather Reports


Display with metric or nautical units.
time (UTC)temp
F
wind
direction
speed
MPH
gust
MPH
rain 1hr
in
rain 24hr
in
rain mn
in
humidity
%
barometer
mb
20260905234601 67 329 0.0 0.0 0.00 0.00 0.00 83 1013.8
20260905233052 68 329 0.0 0.0 0.00 0.00 0.00 82 1013.9
20260905231552 68 347 0.0 0.0 0.00 0.00 0.00 82 1014.0
20260905230053 68 349 0.0 0.0 0.00 0.00 0.00 81 1013.9
20260905224550 69 349 0.0 0.0 0.00 0.00 0.00 80 1014.0
20260905223051 69 9 0.0 0.0 0.00 0.00 0.00 79 1014.0
20260905221547 70 334 0.0 0.0 0.00 0.00 0.00 79 1013.8
20260905220049 70 8 0.0 0.0 0.00 0.00 0.00 79 1013.7
20260905214557 70 288 0.0 0.0 0.00 0.00 0.00 77 1013.6
20260905213047 71 18 0.0 0.0 0.00 0.00 0.00 77 1013.5
20260905211544 71 1 0.0 0.0 0.00 0.00 0.00 76 1013.3
20260905210047 71 54 0.0 0.0 0.00 0.00 0.00 75 1013.3
20260905204543 71 8 0.0 0.0 0.00 0.00 0.00 75 1013.2
20260905203044 71 316 0.0 0.0 0.00 0.00 0.00 73 1013.3
20260905201543 72 256 0.0 0.0 0.00 0.00 0.00 71 1013.3
20260905200047 72 313 0.0 0.0 0.00 0.00 0.00 68 1013.2
20260905194541 73 74 0.0 0.0 0.00 0.00 0.00 68 1013.4
20260905193042 74 32 0.0 0.0 0.00 0.00 0.00 67 1013.4
20260905191540 73 22 0.0 0.0 0.00 0.00 0.00 68 1013.4
20260905190038 73 351 0.0 1.0 0.00 0.00 0.00 69 1013.6
20260905184541 73 323 0.0 1.0 0.00 0.00 0.00 68 1013.5
20260905183038 73 66 0.0 0.0 0.00 0.00 0.00 68 1013.4
20260905181537 73 304 0.0 0.0 0.00 0.00 0.00 68 1013.4
20260905180035 73 33 0.0 0.0 0.00 0.00 0.00 67 1013.4
20260905174541 73 360 0.0 1.0 0.00 0.00 0.00 67 1013.5
20260905173033 73 83 0.0 1.0 0.00 0.00 0.00 66 1013.4
20260905171535 73 29 0.0 0.0 0.00 0.00 0.00 68 1013.3
20260905170031 72 41 0.0 1.0 0.00 0.00 0.00 69 1013.2
20260905164527 72 86 0.0 1.0 0.00 0.00 0.00 72 1013.3
20260905163026 71 23 0.0 0.0 0.00 0.00 0.00 70 1013.3
20260905161525 71 283 0.0 0.0 0.00 0.00 0.00 73 1013.4
20260905160040 70 71 0.0 0.0 0.00 0.00 0.00 76 1013.4
20260905154521 70 59 0.0 0.0 0.00 0.00 0.00 79 1013.6
20260905153019 70 31 0.0 0.0 0.00 0.00 0.00 79 1013.7
20260905151519 69 333 0.0 0.0 0.00 0.00 0.00 78 1013.5
20260905150025 69 343 0.0 0.0 0.00 0.00 0.00 81 1013.5
20260905144537 69 292 0.0 0.0 0.00 0.00 0.00 81 1013.5
20260905143022 69 36 0.0 0.0 0.00 0.00 0.00 82 1013.3
20260905141525 68 32 0.0 0.0 0.00 0.00 0.00 80 1013.5
20260905140015 69 32 0.0 0.0 0.00 0.00 0.00 82 1013.5
20260905134517 69 289 0.0 0.0 0.00 0.00 0.00 82 1013.5
20260905133010 68 64 0.0 1.0 0.00 0.00 0.00 83 1013.5
20260905131508 68 269 0.0 0.0 0.00 0.00 0.00 85 1013.4
20260905130007 67 358 0.0 1.0 0.00 0.00 0.00 88 1013.6
20260905124504 66 358 0.0 0.0 0.00 0.00 0.00 93 1013.7
20260905123002 64 333 0.0 0.0 0.00 0.00 0.00 97 1013.6
20260905121501 63 127 0.0 0.0 0.00 0.00 0.00 98 1013.5
20260905120100 61 47 0.0 0.0 0.00 0.00 0.00 98 1013.3
20260905114628 61 47 0.0 0.0 0.00 0.00 0.00 98 1013.3
20260905113059 60 47 0.0 0.0 0.00 0.00 0.00 98 1013.0
20260905111557 59 47 0.0 0.0 0.00 0.00 0.00 97 1013.2
20260905110056 58 47 0.0 0.0 0.00 0.00 0.00 97 1013.2
20260905104554 58 47 0.0 0.0 0.00 0.00 0.00 97 1013.0
20260905103053 58 47 0.0 0.0 0.00 0.00 0.00 97 1012.6
20260905101552 59 47 0.0 0.0 0.00 0.00 0.00 97 1012.4
20260905100110 59 39 0.0 0.0 0.00 0.00 0.00 97 1012.5
20260905094603 59 39 0.0 0.0 0.00 0.00 0.00 97 1012.5
20260905093049 59 39 0.0 0.0 0.00 0.00 0.00 96 1012.4
20260905091558 59 39 0.0 0.0 0.00 0.00 0.00 96 1012.2
20260905090049 59 39 0.0 0.0 0.00 0.00 0.00 96 1012.1
20260905084545 60 39 0.0 0.0 0.00 0.00 0.00 96 1012.0
20260905083043 60 39 0.0 0.0 0.00 0.00 0.00 95 1012.2
20260905081542 60 39 0.0 0.0 0.00 0.00 0.00 95 1012.2
20260905080041 61 39 0.0 0.0 0.00 0.00 0.00 95 1012.4
20260905074551 61 39 0.0 0.0 0.00 0.00 0.00 95 1012.5
20260905073056 61 39 0.0 0.0 0.00 0.00 0.00 94 1012.4
20260905071534 62 39 0.0 0.0 0.00 0.00 0.00 94 1012.5
20260905070032 62 39 0.0 0.0 0.00 0.00 0.00 93 1012.6
20260905064529 63 39 0.0 0.0 0.00 0.00 0.00 93 1012.6
20260905063028 63 39 0.0 0.0 0.00 0.00 0.00 93 1012.7
20260905061524 64 39 0.0 0.0 0.00 0.00 0.00 93 1012.9
20260905060024 64 39 0.0 0.0 0.00 0.00 0.00 92 1012.9
20260905054522 64 39 0.0 0.0 0.00 0.00 0.00 92 1012.9
20260905053023 65 39 0.0 0.0 0.00 0.00 0.00 92 1012.9
20260905051518 65 39 0.0 0.0 0.00 0.00 0.00 92 1012.8
20260905050018 65 39 0.0 0.0 0.00 0.00 0.00 91 1012.8
20260905044512 66 39 0.0 0.0 0.00 0.00 0.00 90 1012.9
20260905043011 66 42 0.0 0.0 0.00 0.00 0.00 89 1012.9
20260905041511 66 43 0.0 0.0 0.00 0.00 0.00 89 1013.0
20260905040016 66 43 0.0 0.0 0.00 0.00 0.00 88 1012.8
20260905034509 66 43 0.0 0.0 0.00 0.00 0.00 89 1012.8
20260905033022 66 43 0.0 0.0 0.00 0.00 0.00 88 1012.9
20260905031507 66 43 0.0 0.0 0.00 0.00 0.00 86 1012.8
20260905030008 67 43 0.0 0.0 0.00 0.00 0.00 84 1012.7
20260905024506 68 42 0.0 0.0 0.00 0.00 0.00 82 1012.6
20260905023018 67 37 0.0 0.0 0.00 0.00 0.00 83 1012.8
20260905021506 67 60 0.0 0.0 0.00 0.00 0.00 83 1012.8
20260905020008 68 239 0.0 0.0 0.00 0.00 0.00 82 1012.9
20260905014502 68 174 0.0 0.0 0.00 0.19 0.00 82 1012.9
20260905013003 69 174 0.0 0.0 0.00 0.19 0.00 79 1012.9
20260905011502 69 65 0.0 0.0 0.00 0.19 0.00 78 1012.8
20260905010001 70 290 0.0 0.0 0.00 0.61 0.00 77 1012.9
20260905004601 71 319 0.0 0.0 0.00 0.61 0.00 75 1012.8
20260905003100 71 318 0.0 0.0 0.00 0.61 0.00 73 1012.8
20260905001608 71 337 0.0 0.0 0.00 0.61 0.00 74 1012.8
20260905000116 71 344 0.0 0.0 0.00 0.61 0.00 72 1012.6